TimePST,TemperatureF,Dew PointF,Humidity,Sea Level PressureIn,VisibilityMPH,Wind Direction,Wind SpeedMPH,Gust SpeedMPH,PrecipitationIn,Events,Conditions,WindDirDegrees,DateUTC
12:56 AM,46.9,24.1,41,30.17,10.0,WSW,6.9,-,N/A,,Clear,250,2013-02-14 08:56:00
1:56 AM,44.1,21.9,42,30.17,10.0,WNW,3.5,-,N/A,,Clear,290,2013-02-14 09:56:00
2:56 AM,46.9,23.0,39,30.16,10.0,Calm,Calm,-,N/A,,Clear,0,2013-02-14 10:56:00
3:56 AM,43.0,23.0,45,30.15,10.0,WSW,5.8,-,N/A,,Clear,250,2013-02-14 11:56:00
4:56 AM,42.1,23.0,47,30.17,10.0,WSW,8.1,-,N/A,,Clear,250,2013-02-14 12:56:00
5:56 AM,42.1,25.0,51,30.17,10.0,SW,3.5,-,N/A,,Clear,230,2013-02-14 13:56:00
6:56 AM,45.0,24.1,44,30.17,10.0,West,8.1,-,N/A,,Clear,260,2013-02-14 14:56:00
7:56 AM,53.1,25.0,34,30.19,10.0,West,8.1,-,N/A,,Clear,260,2013-02-14 15:56:00
8:56 AM,61.0,26.1,26,30.21,10.0,WNW,6.9,-,N/A,,Clear,290,2013-02-14 16:56:00
9:56 AM,64.9,28.0,25,30.25,10.0,SW,6.9,-,N/A,,Clear,220,2013-02-14 17:56:00
10:56 AM,72.0,23.0,16,30.20,10.0,Variable,4.6,-,N/A,,Clear,0,2013-02-14 18:56:00
11:56 AM,75.0,23.0,14,30.18,10.0,NW,4.6,-,N/A,,Clear,320,2013-02-14 19:56:00
12:56 PM,75.9,23.0,14,30.13,10.0,NNW,11.5,16.1,N/A,,Clear,330,2013-02-14 20:56:00
1:56 PM,77.0,24.1,14,30.11,10.0,North,9.2,-,N/A,,Partly Cloudy,350,2013-02-14 21:56:00
2:56 PM,78.1,23.0,13,30.11,10.0,NNW,9.2,-,N/A,,Scattered Clouds,330,2013-02-14 22:56:00
3:56 PM,77.0,24.1,14,30.10,10.0,NNW,9.2,-,N/A,,Scattered Clouds,330,2013-02-14 23:56:00
4:56 PM,73.0,24.1,16,30.09,10.0,NW,3.5,-,N/A,,Scattered Clouds,310,2013-02-15 00:56:00
5:56 PM,68.0,27.0,21,30.11,10.0,West,3.5,-,N/A,,Scattered Clouds,270,2013-02-15 01:56:00
6:56 PM,62.1,28.9,29,30.13,10.0,West,4.6,-,N/A,,Scattered Clouds,280,2013-02-15 02:56:00
7:56 PM,55.9,25.0,30,30.16,10.0,West,8.1,-,N/A,,Clear,270,2013-02-15 03:56:00
8:56 PM,55.0,25.0,31,30.16,10.0,Calm,Calm,-,N/A,,Clear,0,2013-02-15 04:56:00
9:56 PM,53.1,28.9,40,30.19,10.0,WNW,4.6,-,N/A,,Clear,300,2013-02-15 05:56:00
10:56 PM,52.0,30.9,45,30.20,10.0,West,4.6,-,N/A,,Clear,270,2013-02-15 06:56:00
11:56 PM,52.0,28.9,41,30.20,10.0,West,8.1,-,N/A,,Clear,270,2013-02-15 07:56:00